Regional Weather Roundup
Issued by NWS Sterling, VA

Home | Current Version | Previous Version | Text Only | Print | Product List | Glossary Off
Versions: 1 2 3 4 5 6 7 8 9 10 11 12 13 14 15 16 17 18 19 20 21 22 23 24 25 26 27 28 29 30 31 32 33 34 35 36 37 38 39 40 41 42 43 44 45 46 47 48 49 50

000
ASUS41 KLWX 010510
RWRLWX

REGIONAL WEATHER ROUNDUP
NATIONAL WEATHER SERVICE BALTIMORE MD/WASHINGTON DC
100 AM EDT FRI AUG 01 2014

Note: "FAIR" indicates few or no clouds below 12,000 feet
with no significant weather and/or obstructions to visibility.
 TC=TEMPERATURE CELSIUS

 * =Non NWS site. Station does not report precipitation (e.g. rain,
    snow, etc.), thunder, or fog.

DCZ001-MDZ009-015-VAZ040>042-051-053>054-010600-
WASHINGTON METRO
  /KDAA//-FT BELVOIR

CITY           SKY/WX    TMP DP  RH WIND       PRES   REMARKS
WASHINGTON NAT MOCLDY    76  65  68 S6        30.14S
DULLES         MOCLDY    70  64  81 S5        30.14S
ANDREWS AFB    MOCLDY    71  66  85 S8        30.15R
QUANTICO       MOCLDY    75  66  73 SW7       30.15R
COLLEGE PARK*  MOCLDY    72  66  83 CALM      30.14R
LEESBURG*      PTCLDY    70  66  88 CALM      30.14S
MANASSAS*      MOCLDY    70  68  94 CALM      30.14S
GAITHERSBURG*  PTCLDY    73  63  68 SE3       30.18S

$$

MDZ006>007-011-014-010600-
BALTIMORE METRO

CITY           SKY/WX    TMP DP  RH WIND       PRES   REMARKS
BWI AIRPORT    MOCLDY    73  65  75 S3        30.14R
MD SCIENCE CTR   N/A     76  64  66 MISG      30.14R
MARTIN STATE   MOCLDY    75  70  83 S3        30.15R
ANNAPOLIS      CLOUDY    75  67  76 S6        30.14R
FORT MEADE*    MOCLDY    64  63  94 CALM      30.16R

$$

MDZ012-015-019>023-010600-
MARYLAND EASTERN SHORE

CITY           SKY/WX    TMP DP  RH WIND       PRES   REMARKS
OCEAN CITY     CLEAR     73  69  87 VRB3      30.18R
SALISBURY      PTCLDY    71  66  84 S5        30.17S
BAY BRIDGE AP*   N/A     77  70  78 S6        30.15R
CAMBRIDGE*     MOCLDY    72  68  88 SE3       30.15S
EASTON*        MOCLDY    75  72  89 S6        30.19R

$$

MDZ017>025-010600-
SOUTHERN MARYLAND

CITY           SKY/WX    TMP DP  RH WIND       PRES   REMARKS
PATUXENT RIVER MOCLDY    74  68  81 S6        30.15S
ST INIGOES     MOCLDY    76  66  71 S9        30.15R
LEONARDTOWN*   MOCLDY    72  64  78 S3        30.17S

$$

MDZ003>005-010600-
NORTH CENTRAL MARYLAND

CITY           SKY/WX    TMP DP  RH WIND       PRES   REMARKS
FREDERICK*     PTCLDY    64  64 100 CALM      30.16R
HAGERSTOWN APT CLEAR     71  60  68 CALM      30.14R
WESTMINSTER*   PTCLDY    72  66  83 CALM      30.16R

$$

MDZ501>502-010600-
WESTERN MARYLAND

CITY           SKY/WX    TMP DP  RH WIND       PRES   REMARKS
OAKLAND*       PTCLDY    63  55  77 SW3       30.23S
CUMBERLAND*    PTCLDY    63  61  94 N6        30.19R

$$

VAZ025>031-010600-
SHENANDOAH VALLEY

CITY           SKY/WX    TMP DP  RH WIND       PRES   REMARKS
WINCHESTER*    CLEAR     63  61  94 CALM      30.15R
STAUNTON*      CLOUDY    67  62  84 CALM      30.19S

$$

WVZ021-048>050-054>055-010600-
EASTERN WEST VIRGINIA PANHANDLE

CITY           SKY/WX    TMP DP  RH WIND       PRES   REMARKS
MARTINSBURG    CLEAR     65  60  84 CALM      30.14R
PETERSBURG*    PTCLDY    62  57  84 CALM      30.17S

$$

VAZ036>039-050-010600-
CENTRAL FOOTHILLS

CITY           SKY/WX    TMP DP  RH WIND       PRES   REMARKS
CHARLOTTESVILL CLOUDY    71  66  84 SW3       30.15R
ORANGE*        CLOUDY    70  64  83 CALM      30.16S

$$

VAZ055>057-010600-
NORTH AND CENTRAL PIEDMONT

CITY           SKY/WX    TMP DP  RH WIND       PRES   REMARKS
FREDERICKSBRG* CLOUDY    71  66  84 CALM      30.14S
STAFFORD*      CLOUDY    68  68 100 CALM      30.18S

$$

NCZ024-NYZ072-PAZ021-071-VAZ022-071-010600-
OTHER REGIONAL OBSERVATIONS

CITY           SKY/WX    TMP DP  RH WIND       PRES   REMARKS
NEW YORK CITY  PTCLDY    74  63  68 VRB3      30.18R
PHILADELPHIA   MOCLDY    73  67  81 S5        30.15S
PITTSBURGH     PTCLDY    62  60  93 CALM      30.13S
ROANOKE        CLOUDY    70  61  73 E5        30.20S
RICHMOND       CLOUDY    74  69  85 S3        30.16R
RALEIGH        LGT RAIN  70  67  90 CALM      30.17S FOG

$$

ANZ530>537-010600-
MARINE OBSERVATIONS

STATION/POSITION TIME  TEMP    WIND        PRES
                       AIR SEA DIR/SP/G
                 (UTC) (F)     (DEG/KT/KT) (MB)
THOMAS PT LIGHT  0500   77 78  190/ 15/ 16 1021.2R
BALT KEY BRIDGE  0500   76     190/  7/  8 1020.2R
COVE POINT       0500   75     200/ 11/ 13 1020.9S
LEWISETTA        0500   75 78  200/  8/  9 1020.9S
SOLOMONS ISLAND  0500      80                N/A
PINEY POINT      0500          190/ 10/ 12   N/A

$$



USA.gov is the U.S. government's official web portal to all federal, state and local government web resources and services.